CAPE MAY COURT HOUSE - NJ NJ-MESONET current weather conditions

sailwx.info

Wind from 213 at 4 knots gusting 10

Air temperature 5.6° C
Dewpoint -0.6° C

Last reported at 2019-Dec-05 13:55 UTC.
Time now 2019-Dec-05 14:39 UTC

Location: N 39°07' W 074°47'.
View on Google Maps.

See reports from other nearby stations

  
Tides and Currents Weather Stations Pressure Air Temp Water Temp Dewpoint Dewpoint Depression Visibility Wind Speed Wind Dir Waves Ship Positions
date/time (UTC)wind fromknots sea level pressurealtimeterstation pressurevisibilityair tempwater tempwave heightnotes
2019-Dec-05 13:55 213 4 gusting 10 5.6
2019-Dec-05 13:50 254 2 gusting 9 5.0
2019-Dec-05 13:45 281 0 gusting 5 5.0
2019-Dec-05 13:40 277 2 gusting 8 5.0
2019-Dec-05 13:35 330 1 gusting 9 5.0
2019-Dec-05 13:30 257 3 gusting 9 5.0
2019-Dec-05 13:25 298 7 gusting 11 5.0
2019-Dec-05 13:20 307 3 gusting 10 5.0
2019-Dec-05 13:15 253 2 gusting 6 5.6
2019-Dec-05 13:10 271 4 gusting 13 5.0
2019-Dec-05 13:05 189 3 gusting 9 5.0
2019-Dec-05 13:00 325 4 gusting 8 5.0
2019-Dec-05 12:55 226 7 gusting 11 5.0
2019-Dec-05 12:50 220 3 gusting 15 5.0
2019-Dec-05 12:45 331 6 gusting 13 5.0
2019-Dec-05 12:40 267 3 gusting 14 5.0
2019-Dec-05 12:35 274 4 gusting 8 5.0
2019-Dec-05 12:30 258 5 gusting 10 5.0
2019-Dec-05 12:25 254 6 gusting 11 5.0
2019-Dec-05 12:20 269 6 gusting 8 5.0
2019-Dec-05 12:15 216 5.0
2019-Dec-05 12:10 5.0
2019-Dec-05 12:05 293 4 gusting 6 5.0
2019-Dec-05 12:00 259 3 gusting 13 5.0
2019-Dec-05 11:55 283 4 gusting 9 5.0
2019-Dec-05 11:50 328 1 gusting 8 5.0
2019-Dec-05 11:45 327 4 gusting 7 5.0
2019-Dec-05 11:40 329 5 gusting 11 5.0
2019-Dec-05 11:35 301 3 gusting 13 5.0
2019-Dec-05 11:30 299 1 gusting 15 5.0
2019-Dec-05 11:25 213 3 gusting 9 5.0
2019-Dec-05 11:20 261 1 gusting 9 4.4
2019-Dec-05 11:15 274 2 gusting 9 4.4
2019-Dec-05 11:10 301 2 gusting 10 4.4
2019-Dec-05 11:05 271 2 gusting 8 4.4
2019-Dec-05 11:00 332 4 gusting 7 4.4
2019-Dec-05 10:55 241 2 gusting 8 4.4
2019-Dec-05 10:50 288 4 gusting 12 5.0
2019-Dec-05 10:45 317 1 gusting 8 5.0
2019-Dec-05 10:40 281 0 gusting 6 5.0
2019-Dec-05 10:35 273 4 gusting 13 5.0
2019-Dec-05 10:30 275 2 gusting 7 5.0
2019-Dec-05 10:25 333 1 gusting 15 5.0
2019-Dec-05 10:20 233 2 gusting 8 5.0
2019-Dec-05 10:15 311 6 gusting 12 5.0
2019-Dec-05 10:10 275 5 gusting 7 5.0
2019-Dec-05 10:05 267 1 gusting 6 5.0
2019-Dec-05 10:00 310 1 gusting 9 5.0
2019-Dec-05 09:55 282 4.4
2019-Dec-05 09:50 245 2 gusting 4 4.4
2019-Dec-05 09:45 248 5.0
2019-Dec-05 09:40 254 0 gusting 6 5.0
2019-Dec-05 09:35 286 3 gusting 7 5.0
2019-Dec-05 09:30 249 0 gusting 5 4.4
2019-Dec-05 09:25 294 4 gusting 10 4.4
2019-Dec-05 09:20 304 4 gusting 7 5.0
2019-Dec-05 09:15 265 2 gusting 9 5.0
2019-Dec-05 09:10 263 2 gusting 6 4.4
2019-Dec-05 09:05 305 4 gusting 6 4.4
2019-Dec-05 09:00 293 1 gusting 6 4.4
2019-Dec-05 08:55 241 4.4
2019-Dec-05 08:50 270 2 gusting 6 4.4
2019-Dec-05 08:45 246 2 gusting 6 4.4
2019-Dec-05 08:40 302 1 gusting 6 4.4
2019-Dec-05 08:35 288 1 gusting 8 4.4
2019-Dec-05 08:30 236 1 gusting 6 4.4
2019-Dec-05 08:25 231 2 gusting 6 4.4
2019-Dec-05 08:20 273 2 gusting 9 4.4
2019-Dec-05 08:15 290 3 gusting 6 4.4
2019-Dec-05 08:10 303 4 gusting 9 4.4
2019-Dec-05 08:05 310 4 gusting 9 4.4
2019-Dec-05 08:00 318 4 gusting 5 3.9
2019-Dec-05 07:55 291 3 gusting 4 3.9
2019-Dec-05 07:50 277 3.9
2019-Dec-05 07:45 327 2 gusting 6 3.9
2019-Dec-05 07:40 292 0 gusting 6 3.3
2019-Dec-05 07:35 265 3.3
2019-Dec-05 07:30 306 2.8
2019-Dec-05 07:25 303 0 gusting 1 2.8
2019-Dec-05 07:20 304 3.3
2019-Dec-05 07:15 271 3.3
2019-Dec-05 07:10 261 3.3
2019-Dec-05 07:05 282 1 gusting 3 3.3
2019-Dec-05 07:00 319 0 gusting 3 3.3
2019-Dec-05 06:55 250 0 gusting 4 3.3
2019-Dec-05 06:50 293 1 gusting 4 3.3
2019-Dec-05 06:45 258 0 gusting 5 3.3
2019-Dec-05 06:40 239 1 gusting 4 3.3
2019-Dec-05 06:35 294 2 gusting 7 3.3
2019-Dec-05 06:30 241 2 gusting 4 3.3
2019-Dec-05 06:25 334 3.3
2019-Dec-05 06:20 305 3.3
2019-Dec-05 06:15 277 2.8
2019-Dec-05 06:10 315 2 gusting 5 2.8
2019-Dec-05 06:05 336 1 gusting 6 2.8
2019-Dec-05 06:00 264 1 gusting 5 2.8
2019-Dec-05 05:55 228 0 gusting 3 2.2
2019-Dec-05 05:50 251 1.7
2019-Dec-05 05:45 232 0.6
2019-Dec-05 05:40 232 1.1
2019-Dec-05 05:35 232 1.1
2019-Dec-05 05:30 232 1.1
2019-Dec-05 05:25 232 1.1
2019-Dec-05 05:20 232 1.1
2019-Dec-05 05:15 232 1.1
2019-Dec-05 05:10 232 1.7
2019-Dec-05 05:05 232 1.7
2019-Dec-05 05:00 232 1.7
2019-Dec-05 04:55 232 2.2
2019-Dec-05 04:50 232 2.2
2019-Dec-05 04:45 232 2.2
2019-Dec-05 04:40 232 2.8
2019-Dec-05 04:35 231 2.8
2019-Dec-05 04:30 250 2.2
2019-Dec-05 04:25 250 2.8
2019-Dec-05 04:20 302 2.8
2019-Dec-05 04:15 324 2.8
2019-Dec-05 04:10 242 2.8
2019-Dec-05 04:05 238 2.8
2019-Dec-05 04:00 299 1 gusting 1 2.8
2019-Dec-05 03:55 235 2.8
2019-Dec-05 03:50 239 2.8
2019-Dec-05 03:45 235 2 gusting 2 2.8
2019-Dec-05 03:40 216 2.8
2019-Dec-05 03:35 211 2.8
2019-Dec-05 03:30 339 3.3
2019-Dec-05 03:25 321 3.3
2019-Dec-05 03:20 346 3.3
2019-Dec-05 03:15 244 1 gusting 1 3.3
2019-Dec-05 03:10 275 3.3
2019-Dec-05 03:05 238 0 gusting 4 3.3
2019-Dec-05 03:00 306 3.3
2019-Dec-05 02:55 314 3.3
2019-Dec-05 02:50 333 1 gusting 2 3.3
2019-Dec-05 02:45 345 1 gusting 4 3.9
2019-Dec-05 02:40 013 0 gusting 4 3.9
2019-Dec-05 02:35 284 3.9
2019-Dec-05 02:30 302 2 gusting 4 3.9
2019-Dec-05 02:25 305 3.9
2019-Dec-05 02:20 291 4 gusting 6 3.9
2019-Dec-05 02:15 296 3.9
2019-Dec-05 02:10 306 3.9
2019-Dec-05 02:05 240 1 gusting 2 3.9
2019-Dec-05 02:00 292 3.9
2019-Dec-05 01:55 279 1 gusting 3 3.9
2019-Dec-05 01:50 321 1 gusting 4 3.9
2019-Dec-05 01:45 280 3.9
2019-Dec-05 01:40 342 1 gusting 1 3.9
2019-Dec-05 01:35 355 3.9
2019-Dec-05 01:30 221 3.9
2019-Dec-05 01:25 243 1 gusting 4 3.9
2019-Dec-05 01:20 244 3.9
2019-Dec-05 01:15 239 1 gusting 2 3.9
2019-Dec-05 01:10 311 1 gusting 5 3.9
2019-Dec-05 01:05 344 4 gusting 4 3.9
2019-Dec-05 01:00 305 1 gusting 4 3.9
2019-Dec-05 00:55 247 3.9
2019-Dec-05 00:50 328 2 gusting 2 3.9
2019-Dec-05 00:45 272 3.9
2019-Dec-05 00:40 318 3.9
2019-Dec-05 00:35 350 3.9
2019-Dec-05 00:30 340 3.9
2019-Dec-05 00:25 326 4.4
2019-Dec-05 00:20 327 4.4
2019-Dec-05 00:15 339 4.4
2019-Dec-05 00:10 339 4.4
2019-Dec-05 00:05 339 4.4
2019-Dec-05 00:00 340 4.4
2019-Dec-04 23:55 342 4.4
2019-Dec-04 23:50 316 4.4
2019-Dec-04 23:45 4.4
2019-Dec-04 23:40 315 4.4
2019-Dec-04 23:35 331 4.4
2019-Dec-04 23:30 328 4.4
2019-Dec-04 23:25 347 0 gusting 2 4.4
2019-Dec-04 23:20 335 4.4
2019-Dec-04 23:15 318 5.0
2019-Dec-04 23:10 334 5.0
2019-Dec-04 23:05 338 5.0
2019-Dec-04 23:00 322 5.0
2019-Dec-04 22:55 305 5.0
2019-Dec-04 22:50 309 1 gusting 2 5.0
2019-Dec-04 22:45 299 5.0
2019-Dec-04 22:40 292 5.0
2019-Dec-04 22:35 303 5.0
2019-Dec-04 22:30 329 5.0
2019-Dec-04 22:25 304 5.6
2019-Dec-04 22:20 309 0 gusting 3 5.6
2019-Dec-04 22:15 315 5.6
2019-Dec-04 22:10 336 1 gusting 2 5.6
2019-Dec-04 22:05 340 1 gusting 5 5.6
2019-Dec-04 22:00 314 2 gusting 4 5.6
2019-Dec-04 21:55 354 0 gusting 4 5.6
2019-Dec-04 21:50 307 6.1
2019-Dec-04 21:45 287 0 gusting 4 6.1
2019-Dec-04 21:40 227 2 gusting 4 6.1
2019-Dec-04 21:35 278 6.1
2019-Dec-04 21:30 251 6.1
2019-Dec-04 21:25 287 6.7
2019-Dec-04 21:20 212 0 gusting 2 6.7
2019-Dec-04 21:15 244 6.7
2019-Dec-04 21:10 242 1 gusting 2 6.7
2019-Dec-04 21:05 265 0 gusting 3 6.7
2019-Dec-04 21:00 248 6.7
2019-Dec-04 20:55 328 6.7
2019-Dec-04 20:50 324 6.7
2019-Dec-04 20:45 303 6.7
2019-Dec-04 20:40 262 1 gusting 4 6.7
2019-Dec-04 20:35 283 6.7
2019-Dec-04 20:30 312 3 gusting 3 6.7
2019-Dec-04 20:25 281 0 gusting 5 6.7
2019-Dec-04 20:20 260 1 gusting 5 6.7
2019-Dec-04 20:15 246 1 gusting 5 7.2
2019-Dec-04 20:10 199 4 gusting 6 7.2
2019-Dec-04 20:05 243 1 gusting 5 7.8
2019-Dec-04 20:00 315 7.8
2019-Dec-04 19:55 226 1 gusting 6 7.2
2019-Dec-04 19:50 292 3 gusting 9 7.8
2019-Dec-04 19:45 249 2 gusting 9 7.2
2019-Dec-04 19:40 308 1 gusting 7 7.2
2019-Dec-04 19:35 317 3 gusting 8 7.2
2019-Dec-04 19:30 323 6 gusting 6 7.2
2019-Dec-04 19:25 269 1 gusting 7 7.8
2019-Dec-04 19:20 288 2 gusting 7 7.2
2019-Dec-04 19:15 270 1 gusting 6 7.8
2019-Dec-04 19:10 280 3 gusting 4 7.8
2019-Dec-04 19:05 257 0 gusting 5 7.8
2019-Dec-04 19:00 244 0 gusting 7 7.2
2019-Dec-04 18:55 248 1 gusting 6 8.3
2019-Dec-04 18:50 300 1 gusting 7 7.2
2019-Dec-04 18:45 282 1 gusting 10 6.7
2019-Dec-04 18:40 244 1 gusting 6 7.2
2019-Dec-04 18:35 326 2 gusting 7 7.2
2019-Dec-04 18:30 304 3 gusting 9 6.7
2019-Dec-04 18:25 308 6 gusting 6 7.2
2019-Dec-04 18:20 303 4 gusting 9 6.1
2019-Dec-04 18:15 302 9 gusting 10 6.1
2019-Dec-04 18:10 315 4 gusting 8 6.1
2019-Dec-04 18:05 245 3 gusting 6 6.7
2019-Dec-04 18:00 276 6 gusting 10 6.7
2019-Dec-04 17:55 320 8 gusting 8 7.2
2019-Dec-04 17:50 242 7 gusting 8 7.2
2019-Dec-04 17:45 316 4 gusting 9 6.7
2019-Dec-04 17:40 229 1 gusting 6 7.2
2019-Dec-04 17:35 288 7.2
2019-Dec-04 17:30 219 0 gusting 7 6.7
2019-Dec-04 17:25 279 2 gusting 8 7.2
2019-Dec-04 17:20 259 3 gusting 7 6.7
2019-Dec-04 17:15 253 1 gusting 12 6.7
2019-Dec-04 17:10 296 5 gusting 9 6.7
2019-Dec-04 17:05 302 1 gusting 9 6.7
2019-Dec-04 17:00 266 1 gusting 7 6.7
2019-Dec-04 16:55 242 4 gusting 7 6.7
2019-Dec-04 16:50 288 4 gusting 7 6.7
2019-Dec-04 16:45 230 4 gusting 9 6.7
2019-Dec-04 16:40 272 2 gusting 13 6.7
2019-Dec-04 16:35 311 4 gusting 12 6.1
2019-Dec-04 16:30 224 2 gusting 11 6.7
2019-Dec-04 16:25 254 4 gusting 7 6.7
2019-Dec-04 16:20 311 7 gusting 8 6.1
2019-Dec-04 16:15 293 3 gusting 6 6.1
2019-Dec-04 16:10 235 6 gusting 7 6.1
2019-Dec-04 16:05 258 4 gusting 7 5.6
2019-Dec-04 16:00 227 5 gusting 7 5.6
2019-Dec-04 15:55 185 2 gusting 9 5.6
2019-Dec-04 15:50 308 4 gusting 6 6.1
2019-Dec-04 15:45 302 1 gusting 6 6.1
2019-Dec-04 15:40 270 3 gusting 6 5.6
2019-Dec-04 15:35 305 5 gusting 9 5.6
2019-Dec-04 15:30 297 4 gusting 8 5.6
2019-Dec-04 15:25 245 1 gusting 9 5.6
2019-Dec-04 15:20 249 0 gusting 11 5.6
2019-Dec-04 15:15 283 0 gusting 6 5.6
2019-Dec-04 15:10 310 1 gusting 9 5.6
2019-Dec-04 15:05 207 4 gusting 4 5.6
2019-Dec-04 15:00 244 0 gusting 4 5.0
2019-Dec-04 14:55 246 2 gusting 4 5.0
2019-Dec-04 14:50 296 2 gusting 6 5.0
2019-Dec-04 14:45 309 0 gusting 7 5.0
2019-Dec-04 14:40 222 6 gusting 6 4.4
2019-Dec-04 14:35 271 1 gusting 5 4.4
2019-Dec-04 14:30 269 4.4
2019-Dec-04 14:25 295 2 gusting 7 4.4
2019-Dec-04 14:20 232 2 gusting 4 4.4
2019-Dec-04 14:15 238 1 gusting 4 3.9
2019-Dec-04 14:10 281 2 gusting 4 4.4
2019-Dec-04 14:05 305 1 gusting 6 4.4
2019-Dec-04 14:00 235 0 gusting 3 4.4
2019-Dec-04 13:55 212 4.4
2019-Dec-04 13:50 298 4.4
2019-Dec-04 13:45 289 4.4
2019-Dec-04 13:40 264 4.4
2019-Dec-04 13:35 274 4.4
2019-Dec-04 13:30 011 4.4
2019-Dec-04 13:25 238 3.9
2019-Dec-04 13:20 228 1 gusting 3 3.9
2019-Dec-04 13:15 235 3.9
2019-Dec-04 13:10 276 3.9
2019-Dec-04 13:05 250 3.9
2019-Dec-04 13:00 274 1 gusting 3 3.9
2019-Dec-04 12:55 253 2 gusting 2 3.9
2019-Dec-04 12:50 259 3.9
2019-Dec-04 12:45 288 3.9
2019-Dec-04 12:40 211 3.9
2019-Dec-04 12:35 240 3.3
2019-Dec-04 12:30 301 3.3
2019-Dec-04 12:25 279 3.3
2019-Dec-04 12:20 315 1 gusting 2 3.3
2019-Dec-04 12:15 272 3.3
2019-Dec-04 12:10 287 0 gusting 4 3.3
2019-Dec-04 12:05 310 0 gusting 4 3.3
2019-Dec-04 12:00 306 1 gusting 6 3.3
2019-Dec-04 11:55 291 1 gusting 2 3.3
2019-Dec-04 11:50 324 1 gusting 4 3.3
2019-Dec-04 11:45 340 0 gusting 3 3.3
2019-Dec-04 11:40 302 2.8
2019-Dec-04 11:35 310 2.8
2019-Dec-04 11:30 247 2.8
2019-Dec-04 11:25 280 2.2
2019-Dec-04 11:20 302 2.2
2019-Dec-04 11:15 271 1.7
2019-Dec-04 11:10 343 1.7
2019-Dec-04 11:05 343 1.7
2019-Dec-04 11:00 343 1.7
2019-Dec-04 10:55 343 1.1
2019-Dec-04 10:50 098 1.1
2019-Dec-04 10:45 098 1.1
2019-Dec-04 10:40 098 1.1
2019-Dec-04 10:35 098 1.1
2019-Dec-04 10:30 098 1.1
2019-Dec-04 10:25 098 0.6
2019-Dec-04 10:20 098 0.6
2019-Dec-04 10:15 098 0.6
2019-Dec-04 10:10 207 0.6
2019-Dec-04 10:05 207 0.6
2019-Dec-04 10:00 207 0.6
2019-Dec-04 09:55 207 0.6
2019-Dec-04 09:50 207 0.6
2019-Dec-04 09:45 207 0.6
2019-Dec-04 09:40 207 0.6
2019-Dec-04 09:35 207 0.6
2019-Dec-04 09:30 207 0.6
2019-Dec-04 09:25 207 0.6
2019-Dec-04 09:20 190 0.6
2019-Dec-04 09:15 190 0.6
2019-Dec-04 09:10 190 0.6
2019-Dec-04 09:05 190 0.6
2019-Dec-04 09:00 190 0.6
2019-Dec-04 08:55 190 0.6
2019-Dec-04 08:50 190 -0.0
2019-Dec-04 08:45 190 0.6
2019-Dec-04 08:40 190 0.6
2019-Dec-04 08:35 190 0.6
2019-Dec-04 08:30 190 0.6
2019-Dec-04 08:25 190 1.1
2019-Dec-04 08:20 190 1.1
2019-Dec-04 08:15 190 1.1
2019-Dec-04 08:10 190 1.1
2019-Dec-04 08:05 190 1.1
2019-Dec-04 08:00 190 1.7
2019-Dec-04 07:55 190 1.7
2019-Dec-04 07:50 190 1.7
2019-Dec-04 07:45 190 1.7
2019-Dec-04 07:40 190 1.7
2019-Dec-04 07:35 190 1.7
2019-Dec-04 07:30 190 1.7
2019-Dec-04 07:25 190 1.7
2019-Dec-04 07:20 190 2.2
2019-Dec-04 07:15 191 2.2
2019-Dec-04 07:10 309 2.2
2019-Dec-04 07:05 309 2.2
2019-Dec-04 07:00 309 2.2
2019-Dec-04 06:55 309 2.2
2019-Dec-04 06:50 309 2.2
2019-Dec-04 06:45 309 2.2
2019-Dec-04 06:40 317 2.2
2019-Dec-04 06:35 315 0 gusting 3 2.2
2019-Dec-04 06:30 333 2 gusting 3 2.2
2019-Dec-04 06:25 285 2.2
2019-Dec-04 06:20 312 2.2
2019-Dec-04 06:15 259 0 gusting 4 2.2
2019-Dec-04 06:10 296 1 gusting 4 2.2
2019-Dec-04 06:05 009 1 gusting 4 2.2
2019-Dec-04 06:00 250 2 gusting 4 2.2
2019-Dec-04 05:55 314 2 gusting 4 2.2
2019-Dec-04 05:50 238 1 gusting 5 2.2
2019-Dec-04 05:45 240 3 gusting 6 2.2
2019-Dec-04 05:40 291 0 gusting 5 2.2
2019-Dec-04 05:35 280 1 gusting 6 2.8
2019-Dec-04 05:30 336 2.8
2019-Dec-04 05:25 332 2 gusting 4 2.2
2019-Dec-04 05:20 267 1 gusting 5 2.2
2019-Dec-04 05:15 253 1 gusting 5 2.2
2019-Dec-04 05:10 288 2 gusting 5 2.2
2019-Dec-04 05:05 005 1 gusting 6 2.2
2019-Dec-04 05:00 301 2 gusting 5 2.2
2019-Dec-04 04:55 008 1 gusting 4 2.2
2019-Dec-04 04:50 299 2.2
2019-Dec-04 04:45 285 1 gusting 6 2.2
2019-Dec-04 04:40 304 0 gusting 4 2.2
2019-Dec-04 04:35 278 1.7
2019-Dec-04 04:30 295 1.7
2019-Dec-04 04:25 247 1.7
2019-Dec-04 04:20 324 1.7
2019-Dec-04 04:15 324 1.7
2019-Dec-04 04:10 278 1.7
2019-Dec-04 04:05 278 1.7
2019-Dec-04 04:00 274 1.7
2019-Dec-04 03:55 255 2.2
2019-Dec-04 03:50 247 0 gusting 1 2.2
2019-Dec-04 03:45 313 0 gusting 2 2.2
2019-Dec-04 03:40 308 2.2
2019-Dec-04 03:35 298 0 gusting 2 2.2
2019-Dec-04 03:30 300 1.7
2019-Dec-04 03:25 343 1.7
2019-Dec-04 03:20 234 1.7
2019-Dec-04 03:15 277 2.2
2019-Dec-04 03:10 289 2.2
2019-Dec-04 03:05 308 2.2
2019-Dec-04 03:00 303 0 gusting 2 2.2
2019-Dec-04 02:55 300 2.2
2019-Dec-04 02:50 309 2.2
2019-Dec-04 02:45 283 2.2
2019-Dec-04 02:40 300 2.2
2019-Dec-04 02:35 313 0 gusting 5 2.2
2019-Dec-04 02:30 323 4 gusting 4 2.2
2019-Dec-04 02:25 250 2 gusting 5 2.2
2019-Dec-04 02:20 339 4 gusting 4 2.2
2019-Dec-04 02:15 237 3 gusting 6 2.8
2019-Dec-04 02:10 325 2 gusting 6 2.8
2019-Dec-04 02:05 320 0 gusting 6 2.8
2019-Dec-04 02:00 308 2 gusting 4 2.8
2019-Dec-04 01:55 341 2.8
2019-Dec-04 01:50 230 0 gusting 6 2.8
2019-Dec-04 01:45 225 5 gusting 6 2.8
2019-Dec-04 01:40 308 2 gusting 4 2.8
2019-Dec-04 01:35 306 4 gusting 4 2.8
2019-Dec-04 01:30 330 3 gusting 5 2.8
2019-Dec-04 01:25 304 2.8
2019-Dec-04 01:20 306 3 gusting 5 2.8
2019-Dec-04 01:15 278 1 gusting 4 2.8
2019-Dec-04 01:10 282 2.8
2019-Dec-04 01:05 292 2 gusting 4 3.3
2019-Dec-04 01:00 341 1 gusting 4 3.3
2019-Dec-04 00:55 272 0 gusting 6 3.3
2019-Dec-04 00:50 307 3 gusting 5 3.3
2019-Dec-04 00:45 322 2 gusting 5 3.3
2019-Dec-04 00:40 275 0 gusting 5 3.3
2019-Dec-04 00:35 287 1 gusting 7 3.3
2019-Dec-04 00:30 314 1 gusting 4 2.8
2019-Dec-04 00:25 232 0 gusting 4 3.3
2019-Dec-04 00:20 305 2 gusting 5 3.3
2019-Dec-04 00:15 328 3 gusting 6 3.3
2019-Dec-04 00:10 282 3.3
2019-Dec-04 00:05 234 2 gusting 4 3.3
2019-Dec-04 00:00 256 3.3
2019-Dec-03 23:55 318 2 gusting 5 3.3
2019-Dec-03 23:50 293 1 gusting 6 3.3
2019-Dec-03 23:45 326 2 gusting 5 3.3
2019-Dec-03 23:40 332 6 gusting 6 3.9
2019-Dec-03 23:35 296 3.3
2019-Dec-03 23:30 305 1 gusting 6 3.9
2019-Dec-03 23:25 306 2 gusting 5 3.9
2019-Dec-03 23:20 221 2 gusting 5 3.9
2019-Dec-03 23:15 273 1 gusting 6 3.9
2019-Dec-03 23:10 035 5 gusting 8 3.9
2019-Dec-03 23:05 316 2 gusting 4 3.9
2019-Dec-03 23:00 267 2 gusting 7 3.9
2019-Dec-03 22:55 265 0 gusting 7 3.9
2019-Dec-03 22:50 306 2 gusting 7 4.4
2019-Dec-03 22:45 312 3 gusting 8 4.4
2019-Dec-03 22:40 316 6 gusting 9 4.4
2019-Dec-03 22:35 339 2 gusting 6 3.9
2019-Dec-03 22:30 304 1 gusting 6 4.4
2019-Dec-03 22:25 245 2 gusting 6 4.4
2019-Dec-03 22:20 315 0 gusting 6 4.4
2019-Dec-03 22:15 267 4.4
2019-Dec-03 22:10 328 2 gusting 6 4.4
2019-Dec-03 22:05 310 5 gusting 6 4.4
2019-Dec-03 22:00 327 4 gusting 9 4.4
2019-Dec-03 21:55 316 2 gusting 7 5.0
2019-Dec-03 21:50 251 1 gusting 7 5.0
2019-Dec-03 21:45 272 3 gusting 8 5.0
2019-Dec-03 21:40 202 5.0
2019-Dec-03 21:35 269 3 gusting 11 5.0
2019-Dec-03 21:30 352 6 gusting 9 5.6
2019-Dec-03 21:25 299 2 gusting 12 5.6
2019-Dec-03 21:20 308 5 gusting 9 5.6
2019-Dec-03 21:15 333 4 gusting 11 5.6
2019-Dec-03 21:10 296 4 gusting 8 5.6
2019-Dec-03 21:05 323 0 gusting 9 6.1
2019-Dec-03 21:00 339 1 gusting 8 6.1
2019-Dec-03 20:55 353 6 gusting 9 6.1
2019-Dec-03 20:50 280 5 gusting 11 6.1
2019-Dec-03 20:45 246 4 gusting 14 6.1
2019-Dec-03 20:40 259 5 gusting 13 6.7
2019-Dec-03 20:35 327 2 gusting 12 6.7
2019-Dec-03 20:30 221 9 gusting 13 6.7
2019-Dec-03 20:25 254 2 gusting 13 6.7
2019-Dec-03 20:20 334 5 gusting 12 6.7
2019-Dec-03 20:15 331 0 gusting 12 7.2
2019-Dec-03 20:10 326 5 gusting 15 6.7
2019-Dec-03 20:05 249 0 gusting 9 7.2
2019-Dec-03 20:00 305 8 gusting 11 7.2
2019-Dec-03 19:55 240 2 gusting 15 6.7
2019-Dec-03 19:50 329 10 gusting 17 6.7
2019-Dec-03 19:45 319 5 gusting 13 7.2
2019-Dec-03 19:40 342 5 gusting 15 7.2
2019-Dec-03 19:35 354 4 gusting 13 7.2
2019-Dec-03 19:30 023 3 gusting 12 7.2
2019-Dec-03 19:25 354 6 gusting 14 7.2
2019-Dec-03 19:20 223 4 gusting 15 7.2
2019-Dec-03 19:15 295 9 gusting 17 7.2
2019-Dec-03 19:10 320 3 gusting 13 7.2
2019-Dec-03 19:05 334 5 gusting 15 7.2
2019-Dec-03 19:00 276 5 gusting 13 7.8
2019-Dec-03 18:55 316 13 gusting 16 7.8
2019-Dec-03 18:50 325 11 gusting 14 7.2
2019-Dec-03 18:45 235 4 gusting 13 7.2
2019-Dec-03 18:40 272 4 gusting 15 7.2
2019-Dec-03 18:35 281 3 gusting 13 7.8
2019-Dec-03 18:30 323 4 gusting 16 7.2
2019-Dec-03 18:25 242 3 gusting 13 7.8
2019-Dec-03 18:20 320 9 gusting 10 7.2
2019-Dec-03 18:15 282 1 gusting 11 7.2
2019-Dec-03 18:10 354 4 gusting 9 7.8
2019-Dec-03 18:05 276 5 gusting 12 7.2
2019-Dec-03 18:00 322 6 gusting 13 7.2
2019-Dec-03 17:55 332 9 gusting 13 6.7
2019-Dec-03 17:50 279 4 gusting 12 6.7
2019-Dec-03 17:45 319 11 gusting 13 7.2
2019-Dec-03 17:40 320 9 gusting 16 6.7
2019-Dec-03 17:35 234 5 gusting 11 6.7
2019-Dec-03 17:30 310 6 gusting 12 6.7
2019-Dec-03 17:25 273 4 gusting 13 6.7
2019-Dec-03 17:20 338 6 gusting 18 6.7
2019-Dec-03 17:15 312 8 gusting 12 6.7
2019-Dec-03 17:10 265 5 gusting 13 6.1
2019-Dec-03 17:05 265 4 gusting 14 6.7
2019-Dec-03 17:00 061 1 gusting 12 6.7
2019-Dec-03 16:55 251 4 gusting 13 6.7
2019-Dec-03 16:50 304 11 gusting 13 6.1
2019-Dec-03 16:45 316 3 gusting 13 6.7
2019-Dec-03 16:40 311 2 gusting 10 6.7
2019-Dec-03 16:35 303 8 gusting 9 6.1
2019-Dec-03 16:30 276 6.1
2019-Dec-03 16:25 350 11 gusting 12 6.1
2019-Dec-03 16:20 299 3 gusting 14 5.6
2019-Dec-03 16:15 240 1 gusting 10 6.1
2019-Dec-03 16:10 255 4 gusting 14 5.6
2019-Dec-03 16:05 332 3 gusting 12 5.6
2019-Dec-03 16:00 330 1 gusting 8 5.6
2019-Dec-03 15:55 214 4 gusting 9 5.6
2019-Dec-03 15:50 302 2 gusting 13 5.0
2019-Dec-03 15:45 351 2 gusting 8 5.6
2019-Dec-03 15:40 240 6 gusting 11 5.0
2019-Dec-03 15:35 311 6 gusting 15 5.0
2019-Dec-03 15:30 282 8 gusting 9 5.0
2019-Dec-03 15:25 312 6 gusting 13 4.4
2019-Dec-03 15:20 323 2 gusting 13 4.4
2019-Dec-03 15:15 283 4.4
2019-Dec-03 15:10 315 6 gusting 18 4.4
2019-Dec-03 15:05 308 17 gusting 17 4.4
2019-Dec-03 15:00 029 0 gusting 13 4.4
2019-Dec-03 14:55 275 4 gusting 15 3.9
2019-Dec-03 14:50 237 5 gusting 15 3.9
2019-Dec-03 14:45 225 2 gusting 11 3.9
2019-Dec-03 14:40 302 6 gusting 13 3.9
2019-Dec-03 14:35 348 6 gusting 13 3.9
2019-Dec-03 14:30 293 4 gusting 9 3.3
2019-Dec-03 14:25 310 4 gusting 13 3.3
2019-Dec-03 14:20 322 7 gusting 13 3.3
2019-Dec-03 14:15 342 5 gusting 13 3.3
2019-Dec-03 14:10 312 9 gusting 11 3.3
2019-Dec-03 14:05 283 3 gusting 11 2.8
2019-Dec-03 14:00 238 5 gusting 12 2.8